When you browse on this site, cookies collect data to enhance your experience and personalize the content and advertising you see.
Visit our Privacy Policy to learn more. By continuing to use the site, you agree to this use of cookies and data.
  • In Lithuania
  • List of Countries
  • For 7 days
  • Water Temperature
  • Satellite Maps
  • Weather Map
  • Weather Widgets
  • user-avatar
    Login

    Hourly Weather Lublin

    Today, 22 March, Friday

    Time Temperature Precipitation Wind Pressure Humidity
    00:00 +5°C° 0 mm 4 mps 756 mmHg 91%
    01:00 +5°C° 0 mm 4 mps 756 mmHg 91%
    02:00 +5°C° 0 mm 4 mps 756 mmHg 91%
    03:00 +6°C° 0.1 mm 4 mps 756 mmHg 91%
    04:00 +6°C° 0.1 mm 5 mps 755 mmHg 92%
    05:00 +6°C° 0.1 mm 5 mps 755 mmHg 93%
    06:00 +6°C° 0 mm 5 mps 755 mmHg 93%
    07:00 +7°C° 0 mm 5 mps 756 mmHg 92%
    08:00 +7°C° 0 mm 5 mps 756 mmHg 92%
    09:00 +8°C° 0 mm 5 mps 756 mmHg 89%
    10:00 +8°C° 0 mm 5 mps 756 mmHg 87%
    11:00 +9°C° 0 mm 5 mps 756 mmHg 84%
    12:00 +9°C° 0 mm 5 mps 757 mmHg 79%
    13:00 +9°C° 0 mm 5 mps 757 mmHg 73%
    14:00 +10°C° 0 mm 5 mps 757 mmHg 68%
    15:00 +11°C° 0 mm 4 mps 757 mmHg 65%
    16:00 +12°C° 0 mm 4 mps 756 mmHg 62%
    17:00 +12°C° 0 mm 4 mps 756 mmHg 58%
    18:00 +11°C° 0 mm 4 mps 757 mmHg 61%
    19:00 +9°C° 0 mm 3 mps 757 mmHg 64%
    20:00 +8°C° 0 mm 3 mps 757 mmHg 66%
    21:00 +7°C° 0 mm 2 mps 757 mmHg 62%
    22:00 +6°C° 0 mm 2 mps 757 mmHg 59%
    23:00 +5°C° 0 mm 2 mps 757 mmHg 55%

    Tomorrow, 23 March, Saturday

    Time Temperature Precipitation Wind Pressure Humidity
    00:00 +4°C° 0 mm 2 mps 757 mmHg 55%
    01:00 +4°C° 0 mm 2 mps 757 mmHg 55%
    02:00 +4°C° 0 mm 1 mps 757 mmHg 55%
    03:00 +4°C° 0 mm 1 mps 757 mmHg 56%
    04:00 +3°C° 0 mm 1 mps 756 mmHg 56%
    05:00 +3°C° 0 mm 1 mps 756 mmHg 57%
    06:00 +4°C° 0 mm 1 mps 756 mmHg 55%
    07:00 +4°C° 0 mm 1 mps 756 mmHg 54%
    08:00 +5°C° 0 mm 1 mps 756 mmHg 52%
    09:00 +6°C° 0 mm 1 mps 756 mmHg 46%
    10:00 +8°C° 0 mm 1 mps 756 mmHg 41%
    11:00 +10°C° 0 mm 1 mps 755 mmHg 35%
    12:00 +11°C° 0 mm 1 mps 755 mmHg 32%
    13:00 +12°C° 0 mm 2 mps 754 mmHg 30%
    14:00 +13°C° 0 mm 2 mps 754 mmHg 27%
    15:00 +13°C° 0 mm 2 mps 753 mmHg 28%
    16:00 +14°C° 0 mm 2 mps 753 mmHg 29%
    17:00 +14°C° 0 mm 2 mps 752 mmHg 30%
    18:00 +13°C° 0 mm 2 mps 752 mmHg 34%
    19:00 +10°C° 0 mm 2 mps 752 mmHg 38%
    20:00 +9°C° 0 mm 2 mps 752 mmHg 43%
    21:00 +8°C° 0 mm 3 mps 752 mmHg 45%
    22:00 +8°C° 0 mm 3 mps 751 mmHg 48%
    23:00 +8°C° 0 mm 3 mps 751 mmHg 50%

    Day after tomorrow, 24 March, Sunday

    Time Temperature Precipitation Wind Pressure Humidity
    00:00 +8°C° 0 mm 3 mps 751 mmHg 55%
    01:00 +7°C° 0 mm 3 mps 751 mmHg 59%
    02:00 +7°C° 0 mm 3 mps 751 mmHg 64%
    03:00 +6°C° 0.1 mm 4 mps 751 mmHg 73%
    04:00 +6°C° 0.1 mm 4 mps 751 mmHg 82%
    05:00 +7°C° 0.1 mm 4 mps 750 mmHg 92%
    06:00 +6°C° 0 mm 5 mps 751 mmHg 86%
    07:00 +5°C° 0 mm 5 mps 751 mmHg 81%
    08:00 +5°C° 0 mm 5 mps 751 mmHg 75%
    09:00 +5°C° 0 mm 5 mps 752 mmHg 68%
    10:00 +6°C° 0 mm 5 mps 752 mmHg 60%
    11:00 +7°C° 0 mm 5 mps 752 mmHg 52%
    12:00 +8°C° 0 mm 5 mps 752 mmHg 49%
    13:00 +8°C° 0 mm 5 mps 752 mmHg 46%
    14:00 +9°C° 0 mm 5 mps 751 mmHg 43%
    15:00 +9°C° 0 mm 5 mps 751 mmHg 43%
    16:00 +8°C° 0 mm 5 mps 751 mmHg 44%
    17:00 +8°C° 0 mm 5 mps 751 mmHg 44%
    18:00 +7°C° 0 mm 4 mps 751 mmHg 47%
    19:00 +6°C° 0 mm 4 mps 751 mmHg 51%
    20:00 +5°C° 0 mm 3 mps 751 mmHg 54%
    21:00 +5°C° 0 mm 3 mps 751 mmHg 58%
    22:00 +4°C° 0 mm 3 mps 751 mmHg 61%
    23:00 +4°C° 0 mm 2 mps 752 mmHg 65%

    25 March, Monday

    Time Temperature Precipitation Wind Pressure Humidity
    00:00 +4°C° 0 mm 2 mps 752 mmHg 67%
    01:00 +3°C° 0 mm 2 mps 752 mmHg 69%
    02:00 +3°C° 0 mm 2 mps 752 mmHg 72%
    03:00 +2°C° 0 mm 2 mps 751 mmHg 73%
    04:00 +2°C° 0 mm 2 mps 751 mmHg 74%
    05:00 +2°C° 0 mm 2 mps 751 mmHg 75%
    06:00 +2°C° 0 mm 2 mps 751 mmHg 75%
    07:00 +2°C° 0 mm 2 mps 751 mmHg 74%
    08:00 +2°C° 0 mm 3 mps 751 mmHg 74%
    09:00 +3°C° 0 mm 4 mps 751 mmHg 67%
    10:00 +3°C° 0 mm 5 mps 750 mmHg 60%
    11:00 +6°C° 0 mm 5 mps 750 mmHg 53%
    12:00 +5°C° 0.1 mm 6 mps 749 mmHg 51%
    13:00 +7°C° 0.1 mm 6 mps 749 mmHg 49%
    14:00 +6°C° 0.1 mm 7 mps 748 mmHg 47%
    15:00 +6°C° 0.1 mm 7 mps 747 mmHg 47%
    16:00 +6°C° 0.1 mm 7 mps 747 mmHg 48%
    17:00 +6°C° 0.1 mm 7 mps 746 mmHg 49%
    18:00 +5°C° 0.4 mm 7 mps 746 mmHg 56%
    19:00 +4°C° 0.4 mm 7 mps 745 mmHg 63%
    20:00 +3°C° 0.4 mm 7 mps 745 mmHg 70%
    21:00 +3°C° 0.1 mm 6 mps 745 mmHg 70%
    22:00 +2°C° 0.1 mm 5 mps 745 mmHg 70%
    23:00 +2°C° 0.1 mm 5 mps 745 mmHg 70%

    26 March, Tuesday

    Time Temperature Precipitation Wind Pressure Humidity
    00:00 +1°C° 0 mm 5 mps 745 mmHg 72%
    01:00 0°C° 0 mm 5 mps 745 mmHg 74%
    02:00 0°C° 0 mm 5 mps 745 mmHg 75%
    03:00 -1°C° 0 mm 5 mps 746 mmHg 78%
    04:00 -1°C° 0 mm 4 mps 746 mmHg 80%
    05:00 -1°C° 0 mm 4 mps 746 mmHg 82%
    06:00 -1°C° 0.1 mm 4 mps 747 mmHg 82%
    07:00 0°C° 0.1 mm 4 mps 747 mmHg 83%
    08:00 0°C° 0.1 mm 4 mps 748 mmHg 83%
    09:00 +1°C° 0 mm 5 mps 748 mmHg 74%
    10:00 +2°C° 0 mm 5 mps 749 mmHg 66%
    11:00 +3°C° 0 mm 6 mps 750 mmHg 57%
    12:00 +4°C° 0 mm 6 mps 750 mmHg 57%
    13:00 +4°C° 0 mm 7 mps 750 mmHg 56%
    14:00 +5°C° 0 mm 7 mps 751 mmHg 56%
    15:00 +5°C° 0 mm 7 mps 751 mmHg 58%
    16:00 +5°C° 0 mm 6 mps 751 mmHg 59%
    17:00 +4°C° 0 mm 6 mps 751 mmHg 60%
    18:00 +5°C° 0 mm 5 mps 752 mmHg 63%
    19:00 +4°C° 0 mm 4 mps 752 mmHg 67%
    20:00 +3°C° 0 mm 3 mps 753 mmHg 70%
    21:00 +3°C° 0 mm 3 mps 753 mmHg 73%
    22:00 +2°C° 0 mm 3 mps 753 mmHg 77%
    23:00 +1°C° 0 mm 3 mps 753 mmHg 81%

    27 March, Wednesday

    Time Temperature Precipitation Wind Pressure Humidity
    00:00 +1°C° 0 mm 3 mps 753 mmHg 83%
    01:00 0°C° 0 mm 3 mps 753 mmHg 84%
    02:00 0°C° 0 mm 3 mps 753 mmHg 86%
    03:00 0°C° 0 mm 3 mps 753 mmHg 86%
    04:00 0°C° 0 mm 3 mps 753 mmHg 85%
    05:00 -1°C° 0 mm 4 mps 753 mmHg 84%
    06:00 0°C° 0 mm 4 mps 752 mmHg 80%
    07:00 +1°C° 0 mm 5 mps 752 mmHg 77%
    08:00 +1°C° 0 mm 5 mps 752 mmHg 73%
    09:00 +2°C° 0 mm 5 mps 752 mmHg 73%
    10:00 +3°C° 0 mm 5 mps 752 mmHg 72%
    11:00 +4°C° 0 mm 6 mps 752 mmHg 72%
    12:00 +5°C° 0 mm 6 mps 752 mmHg 70%
    13:00 +5°C° 0 mm 6 mps 752 mmHg 68%
    14:00 +7°C° 0 mm 6 mps 752 mmHg 66%
    15:00 +7°C° 0 mm 5 mps 753 mmHg 64%
    16:00 +7°C° 0 mm 5 mps 753 mmHg 63%
    17:00 +8°C° 0 mm 5 mps 753 mmHg 61%
    18:00 +7°C° 0 mm 5 mps 753 mmHg 66%
    19:00 +6°C° 0 mm 4 mps 753 mmHg 70%
    20:00 +6°C° 0 mm 4 mps 754 mmHg 75%
    21:00 +5°C° 0 mm 4 mps 754 mmHg 79%
    22:00 +5°C° 0 mm 4 mps 754 mmHg 82%
    23:00 +5°C° 0 mm 3 mps 755 mmHg 86%
    Show more